Date,TemperatureHighF,TemperatureAvgF,TemperatureLowF,DewpointHighF,DewpointAvgF,DewpointLowF,HumidityHigh,HumidityAvg,HumidityLow,PressureMaxIn,PressureMinIn,WindSpeedMaxMPH,WindSpeedAvgMPH,GustSpeedMaxMPH,PrecipitationSumIn
2013-1-1,31,26,17,31,23,12,100,87,72,30.20,30.05,6,0,12,0.00
2013-1-2,24,16,9,16,12,7,97,82,55,30.30,30.16,6,1,8,0.00
2013-1-3,29,19,7,22,14,6,97,83,52,30.34,30.23,10,3,20,0.00
2013-1-4,30,26,19,22,19,16,85,76,64,30.39,30.30,15,5,22,0.00
2013-1-5,36,26,14,27,21,13,99,82,64,30.45,30.21,6,1,12,0.02
2013-1-6,35,30,24,32,27,22,97,86,77,30.38,30.04,9,3,21,0.22
2013-1-7,34,28,24,26,24,21,92,83,67,30.57,30.33,7,1,13,0.05
2013-1-8,43,31,19,30,25,18,98,81,59,30.42,30.29,5,0,8,0.04
2013-1-9,46,37,28,38,32,25,95,81,67,30.62,30.26,10,2,15,0.05
2013-1-10,40,32,23,31,27,23,100,83,60,30.67,30.22,6,1,13,0.00
2013-1-11,57,49,41,52,44,30,97,83,65,30.22,29.93,13,3,22,0.30
2013-1-12,61,55,47,58,52,44,99,91,78,30.10,29.88,7,2,13,0.00
2013-1-13,61,55,36,58,52,36,100,92,77,30.12,29.79,10,4,25,0.40
2013-1-14,36,27,23,36,24,20,100,86,75,30.51,30.12,7,2,14,0.00
2013-1-15,30,26,21,23,21,20,95,81,71,30.47,30.13,7,2,12,0.00
2013-1-16,33,30,29,28,25,22,94,80,70,30.14,29.97,8,2,13,0.00
2013-1-17,35,31,22,28,24,15,91,76,68,30.40,30.10,9,2,18,0.00
2013-1-18,32,24,14,23,16,10,90,70,52,30.61,30.28,12,3,20,0.00
2013-1-19,50,40,30,27,23,21,74,53,34,30.28,29.89,14,5,26,0.00
2013-1-20,42,29,21,31,16,10,67,58,39,30.26,29.87,20,5,30,0.00
2013-1-21,22,17,7,16,9,-2,88,71,55,30.24,30.06,16,5,26,0.00
2013-1-22,13,8,3,0,-3,-4,74,63,50,30.40,30.23,12,5,18,0.00
2013-1-23,18,13,8,13,3,-2,92,66,42,30.39,30.11,10,3,16,0.00
2013-1-24,20,15,10,14,9,6,95,78,58,30.65,30.11,13,2,22,0.00
2013-1-25,21,17,14,20,12,4,95,80,59,30.56,30.05,7,2,11,0.00
2013-1-26,26,22,15,21,18,10,94,81,68,30.53,30.14,6,2,12,0.00
2013-1-27,32,23,10,28,16,9,96,78,58,30.57,30.29,6,2,12,0.04
2013-1-28,48,40,30,47,40,28,100,98,94,30.29,30.04,7,2,15,0.28
2013-1-29,63,54,46,53,49,46,100,85,67,30.10,29.67,8,3,19,0.00
2013-1-30,61,52,31,53,47,26,97,84,70,29.66,29.18,22,6,31,0.45
2013-1-31,32,23,16,26,18,10,99,82,63,29.94,29.42,21,9,37,0.00
2013-2-1,16,9,4,15,4,0,96,77,68,30.43,29.94,14,5,24,0.00
2013-2-2,24,18,8,23,15,4,97,89,81,30.40,30.00,9,3,15,0.00
2013-2-3,23,19,16,21,16,10,96,87,73,30.14,29.91,12,3,18,0.00
2013-2-4,28,21,12,28,18,11,99,91,64,30.14,29.84,7,1,13,0.00
2013-2-5,30,27,24,28,24,20,99,88,73,30.01,29.86,8,1,11,0.00
2013-2-6,35,29,22,28,21,17,90,75,48,30.37,30.01,7,1,13,0.10
2013-2-7,46,35,21,31,25,17,86,69,48,30.32,29.84,6,2,10,0.01
2013-2-8,43,32,23,37,27,16,99,83,70,30.37,29.77,13,4,22,0.16
2013-2-9,36,26,17,19,17,15,96,71,47,30.52,30.35,7,1,14,0.00
2013-2-10,47,36,25,38,23,16,82,59,40,30.35,29.85,9,3,17,0.01
2013-2-11,49,42,35,45,33,23,96,73,49,30.03,29.75,18,7,30,0.00
2013-2-12,43,34,28,25,24,22,81,65,46,30.17,29.94,16,4,24,0.00
2013-2-13,31,28,24,28,25,22,97,89,80,29.94,29.74,6,1,9,0.00
2013-2-14,43,32,23,36,29,22,100,90,72,29.99,29.83,10,2,18,0.00
2013-2-15,34,28,24,30,26,22,98,90,73,30.17,29.99,9,1,15,0.02
2013-2-16,26,20,14,22,15,6,97,81,59,30.16,30.00,12,2,18,0.00
2013-2-17,22,16,12,11,8,3,86,71,52,30.31,30.10,8,2,14,0.00
2013-2-18,48,31,12,30,18,8,85,59,43,30.31,29.77,10,4,22,0.00
2013-2-19,45,29,18,37,24,12,100,84,57,30.10,29.64,18,8,36,0.16
2013-2-20,19,17,13,15,11,8,89,78,67,30.34,30.10,12,6,21,0.00
2013-2-21,26,21,17,17,15,12,90,77,66,30.42,30.26,7,2,13,0.00
2013-2-22,40,31,23,37,28,16,100,87,73,30.27,29.94,10,3,20,0.05
2013-2-23,38,33,28,31,26,22,88,76,56,30.01,29.91,9,2,16,0.00
2013-2-24,31,28,24,23,20,18,86,74,60,30.21,29.94,7,2,14,0.00
2013-2-25,42,31,19,25,21,18,98,68,42,30.26,30.02,7,1,12,0.00
2013-2-26,40,36,32,40,30,20,99,83,58,30.01,29.43,9,3,17,0.41
2013-2-27,40,35,30,40,34,28,99,95,88,29.69,29.46,13,4,25,0.17
2013-2-28,34,31,28,32,30,27,100,94,85,29.92,29.63,9,4,18,0.02
2013-3-1,31,28,25,28,23,18,89,81,70,30.08,29.92,8,3,17,0.00
2013-3-2,27,24,23,22,21,19,93,86,74,30.08,30.02,7,2,14,0.00
2013-3-3,28,23,20,20,17,14,91,76,58,30.10,30.03,7,2,13,0.00
2013-3-4,38,27,13,19,15,10,97,65,33,30.21,30.08,9,1,13,0.00
2013-3-5,38,33,29,30,24,18,100,71,51,30.13,29.53,8,2,14,0.05
2013-3-6,36,32,29,31,29,26,100,91,80,30.26,29.52,7,3,14,0.42
2013-3-7,39,33,29,28,26,25,86,78,63,30.43,30.25,7,2,13,0.01
2013-3-8,44,34,26,27,24,21,88,69,44,30.55,30.42,6,2,12,0.00
2013-3-9,54,40,24,29,26,22,94,62,36,30.48,30.12,6,2,14,0.00
2013-3-10,66,56,46,34,30,25,59,38,26,30.13,29.88,13,3,21,0.01
2013-3-11,59,49,39,48,40,31,99,74,35,29.90,29.58,13,4,29,0.48
2013-3-12,38,34,30,32,28,24,89,79,67,30.05,29.83,12,5,21,0.00
2013-3-13,31,27,24,29,22,16,97,80,61,30.32,29.99,15,5,27,0.00
2013-3-14,38,29,21,20,17,13,81,62,42,30.37,30.19,13,3,17,0.00
2013-3-15,47,36,26,40,28,19,96,73,58,30.20,29.86,8,2,14,0.09
2013-3-16,49,39,29,44,37,26,99,93,79,30.07,29.60,8,2,19,0.07
2013-3-17,36,32,29,27,24,21,91,75,60,30.23,30.07,6,3,15,0.00
2013-3-18,47,37,29,47,36,23,100,94,75,30.12,29.59,15,3,24,0.73
2013-3-19,37,32,25,34,21,14,88,66,45,30.07,29.79,17,8,31,0.00
2013-3-20,32,28,21,17,14,9,65,55,48,30.07,29.93,13,6,25,0.00
2013-3-21,27,22,16,20,13,7,84,70,55,30.01,29.93,10,3,22,0.00
2013-3-22,39,28,19,18,16,15,85,62,39,30.07,30.00,12,2,18,0.00
2013-3-23,45,32,18,24,20,17,95,63,35,30.11,29.98,7,1,13,0.00
2013-3-24,34,31,28,30,23,18,98,70,53,29.99,29.39,9,3,18,0.00
2013-3-25,33,30,29,31,30,29,100,98,90,29.88,29.35,8,1,17,0.00
2013-3-26,40,33,30,30,27,18,100,80,45,30.22,29.88,9,3,17,0.27
2013-3-27,39,34,30,29,24,18,92,68,45,30.32,30.21,9,4,21,0.00
2013-3-28,46,36,26,25,23,20,81,61,42,30.37,30.30,9,2,17,0.00
2013-3-29,50,37,24,28,25,22,95,64,38,30.38,30.26,10,1,20,0.00
2013-3-30,54,40,24,30,24,20,98,59,27,30.32,29.99,7,1,12,0.00
2013-3-31,51,45,40,44,36,23,95,71,47,29.99,29.75,12,2,18,0.05
2013-4-1,47,38,30,38,22,10,78,55,37,30.15,29.76,10,4,22,0.00
2013-4-2,40,31,22,17,14,12,72,50,33,30.31,30.15,12,3,19,0.00
2013-4-3,42,32,21,16,12,8,71,45,28,30.49,30.31,9,2,20,0.00
2013-4-4,51,37,27,21,13,7,55,38,20,30.45,30.02,6,1,12,0.00
2013-4-5,53,40,25,30,22,18,85,52,31,30.23,29.99,12,2,17,0.00
2013-4-6,58,44,30,21,15,7,63,34,19,30.34,29.96,7,3,15,0.00
2013-4-7,69,60,51,41,34,18,53,39,26,30.04,29.88,14,5,24,0.00
2013-4-8,69,60,50,50,46,37,82,60,48,30.05,29.91,10,2,24,0.00
2013-4-9,77,65,51,53,50,48,90,61,38,30.14,29.94,10,2,25,0.00
2013-4-10,78,67,58,61,56,52,91,68,48,30.01,29.82,12,3,26,0.15
2013-4-11,66,58,51,59,55,49,99,90,73,29.93,29.54,8,1,17,0.64
2013-4-12,57,46,38,57,41,30,100,83,63,29.93,29.47,15,5,22,0.19
2013-4-13,49,41,35,35,32,29,79,70,53,30.09,29.93,14,4,20,0.00
2013-4-14,63,48,32,38,33,29,94,61,35,30.19,29.97,8,2,14,0.00
2013-4-15,67,59,49,49,44,34,68,57,42,30.08,29.95,9,3,19,0.00
2013-4-16,74,61,54,58,53,48,98,76,51,30.25,30.02,9,3,20,0.35
2013-4-17,64,57,51,56,53,49,99,88,73,30.31,30.06,6,2,16,0.08
2013-4-18,82,69,58,59,54,45,90,62,29,30.09,29.67,13,4,27,0.00
2013-4-19,72,50,37,57,39,27,98,68,47,29.97,29.42,16,8,28,0.29
2013-4-20,44,37,32,31,26,21,91,65,43,30.50,29.97,13,5,23,0.01
2013-4-21,52,40,26,26,22,19,88,53,28,30.68,30.50,6,1,13,0.00
2013-4-22,67,52,35,37,30,20,64,44,30,30.51,30.24,7,1,13,0.00
2013-4-23,69,58,46,47,35,26,60,42,32,30.25,29.93,9,2,17,0.00
2013-4-24,61,49,34,53,42,31,100,80,52,30.28,29.80,10,2,21,0.53
2013-4-25,53,41,30,37,31,21,100,71,39,30.46,30.27,14,2,23,0.00
2013-4-26,60,46,28,34,28,24,98,57,29,30.57,30.45,5,0,9,0.00
2013-4-27,72,63,56,45,33,28,57,33,22,30.46,30.17,8,1,12,0.00
2013-4-28,64,58,54,58,54,44,98,86,57,30.17,29.87,6,1,13,0.81
2013-4-29,64,60,56,58,55,52,99,86,68,30.05,29.92,5,0,12,0.03
2013-4-30,77,62,47,56,52,46,99,72,42,30.15,30.04,6,1,10,0.01
2013-5-1,82,69,57,57,53,49,81,59,34,30.32,30.14,6,1,12,0.00
2013-5-2,76,67,58,55,51,46,73,56,44,30.36,30.20,7,2,15,0.00
2013-5-3,78,68,59,54,44,32,82,47,19,30.23,30.09,8,2,18,0.00
2013-5-4,72,64,55,45,41,37,59,45,36,30.16,30.05,9,2,16,0.00
2013-5-5,74,64,52,44,38,28,72,41,24,30.11,29.97,7,1,11,0.00
2013-5-6,68,62,56,57,46,29,86,59,26,30.06,30.00,5,0,9,0.02
2013-5-7,72,62,56,62,55,52,90,78,54,30.04,29.98,6,1,20,0.04
2013-5-8,73,63,54,55,53,50,92,71,48,30.04,29.96,6,0,10,0.00
2013-5-9,81,66,51,57,51,44,98,65,28,30.07,29.99,6,1,13,0.00
2013-5-10,74,64,60,62,60,54,97,87,60,30.02,29.83,12,1,23,0.66
2013-5-11,62,53,45,61,49,39,97,87,71,30.00,29.85,8,2,15,0.02
2013-5-12,52,46,39,39,33,28,95,64,42,30.18,30.00,10,3,24,0.01
2013-5-13,57,46,36,38,31,25,97,60,30,30.24,30.15,9,1,15,0.00
2013-5-14,76,57,37,55,42,34,95,60,36,30.22,29.84,9,2,19,0.00
2013-5-15,87,75,64,58,56,52,77,53,31,29.90,29.83,17,4,25,0.00
2013-5-16,79,70,65,63,59,48,92,71,35,30.06,29.87,9,1,18,0.02
2013-5-17,83,69,61,63,60,53,98,75,38,30.20,30.06,6,0,14,0.00
2013-5-18,82,70,62,62,58,52,83,66,43,30.19,30.07,5,0,8,0.00
2013-5-19,81,71,61,65,62,59,94,73,52,30.12,30.01,6,1,9,0.00
2013-5-20,87,75,66,69,65,63,95,74,47,30.11,29.97,7,1,15,0.00
2013-5-21,86,77,70,68,63,56,91,64,37,30.01,29.88,10,2,21,0.00
2013-5-22,81,72,64,62,60,58,92,67,47,29.93,29.78,9,2,21,0.05
2013-5-23,73,63,48,63,57,45,96,82,51,30.13,29.84,10,3,25,0.03
2013-5-24,58,50,43,45,38,34,91,67,45,30.42,30.13,9,3,21,0.00
2013-5-25,64,51,36,42,38,34,99,66,39,30.49,30.34,6,1,16,0.00
2013-5-26,70,56,40,42,35,28,96,52,22,30.45,30.32,6,1,11,0.00
2013-5-27,70,59,50,52,44,34,89,60,43,30.36,30.09,6,1,18,0.10
2013-5-28,84,74,63,63,58,52,81,60,40,30.12,30.02,10,2,19,0.00
2013-5-29,88,77,68,60,58,51,69,52,29,30.17,30.06,10,3,21,0.00
2013-5-30,89,78,65,64,61,58,88,59,38,30.28,30.11,7,2,15,0.00
2013-5-31,87,75,67,66,62,59,93,67,42,30.18,30.04,12,2,21,0.17
2013-6-1,84,75,67,68,65,62,94,72,51,30.07,29.83,12,3,24,0.11
2013-6-2,77,70,66,68,60,55,94,71,48,29.99,29.84,8,2,16,0.06
2013-6-3,69,61,55,59,52,45,85,72,50,30.17,29.98,6,1,14,0.00
2013-6-4,78,62,44,48,43,38,86,53,32,30.27,30.16,3,0,13,0.00
2013-6-5,84,70,56,57,49,44,67,50,34,30.22,29.94,5,0,8,0.00
2013-6-6,73,65,59,67,62,56,97,92,58,29.96,29.82,6,1,12,1.01
2013-6-7,68,60,56,58,55,53,96,84,63,29.97,29.87,7,2,16,0.00
2013-6-8,77,65,54,57,54,50,97,69,40,30.17,29.95,5,0,9,0.00
2013-6-9,84,73,65,66,59,54,82,63,37,30.20,30.02,5,1,13,0.01
2013-6-10,78,70,66,67,64,60,97,83,55,30.02,29.82,9,1,14,0.58
2013-6-11,84,73,63,63,62,59,93,70,45,30.02,29.89,7,2,14,0.00
2013-6-12,88,79,69,72,67,62,83,68,54,30.00,29.74,7,1,14,0.00
2013-6-13,81,70,64,71,60,51,98,74,43,29.92,29.53,9,2,30,0.64
2013-6-14,77,67,57,58,55,52,94,67,45,30.14,29.92,8,2,17,0.00
2013-6-15,79,68,52,59,56,52,98,68,42,30.21,30.03,7,0,14,0.00
2013-6-16,77,72,68,66,63,59,87,74,62,30.05,29.98,10,3,18,0.02
2013-6-17,87,75,66,67,64,54,95,72,34,30.04,29.93,6,1,10,0.00
2013-6-18,82,72,64,66,62,54,91,73,48,30.06,29.90,7,2,16,0.00
2013-6-19,80,67,56,54,49,40,91,58,26,30.22,30.06,6,1,12,0.00
2013-6-20,87,70,54,56,51,48,91,56,31,30.31,30.22,3,0,8,0.00
2013-6-21,87,74,58,61,56,50,91,57,29,30.33,30.21,6,1,12,0.00
2013-6-22,90,78,66,68,64,60,87,64,42,30.25,30.12,8,1,17,0.00
2013-6-23,89,78,65,67,64,58,93,65,40,30.23,30.09,8,1,15,0.00
2013-6-24,86,77,64,68,64,61,92,66,48,30.23,30.07,9,2,14,0.00
2013-6-25,90,80,70,70,67,65,89,66,46,30.14,29.92,10,3,21,0.00
2013-6-26,86,75,67,70,67,63,97,80,55,30.00,29.83,13,2,22,0.60
2013-6-27,85,74,67,70,67,65,97,81,56,29.85,29.68,8,1,18,0.15
2013-6-28,82,74,66,68,63,55,88,70,47,29.69,29.55,13,2,29,0.08
2013-6-29,81,68,62,64,61,59,97,81,50,29.71,29.57,6,1,15,0.16
2013-6-30,82,69,61,66,63,60,98,83,56,29.90,29.70,5,1,13,0.01
2013-7-1,83,71,65,66,63,59,95,77,45,29.99,29.87,6,1,12,0.04
2013-7-2,83,74,68,67,65,62,88,72,54,30.10,29.96,5,1,10,0.00
2013-7-3,84,77,70,68,66,64,90,71,52,30.22,30.09,6,1,12,0.00
2013-7-4,83,83,83,64,64,64,54,54,54,30.26,30.18,0,0,0,0.00
2013-7-5,83,72,64,69,67,60,98,86,54,30.25,30.17,5,0,9,0.43
2013-7-6,83,74,70,70,68,64,94,82,60,30.24,30.09,8,1,21,0.01
2013-7-7,81,72,65,65,63,59,91,75,52,30.19,30.08,6,1,16,0.03
2013-7-8,81,70,64,73,67,62,98,89,73,30.22,30.11,6,0,12,0.75
2013-7-9,87,75,71,74,70,67,96,86,60,30.15,30.04,8,2,14,0.23
2013-7-10,89,75,66,74,70,62,97,86,57,30.08,29.84,13,1,24,0.76
2013-7-11,78,70,62,66,61,52,96,76,49,30.09,29.99,8,1,17,0.01
2013-7-12,81,68,57,61,57,55,96,71,46,30.17,30.09,7,1,13,0.00
2013-7-13,86,74,63,65,62,58,90,67,46,30.26,30.16,5,1,10,0.00
2013-7-14,90,80,71,70,67,65,83,67,51,30.34,30.24,6,1,12,0.00
2013-7-15,93,82,74,71,68,65,81,64,43,30.43,30.33,5,0,10,0.00
2013-7-16,95,82,71,72,70,66,94,69,41,30.44,30.34,5,0,9,0.00
2013-7-17,94,83,73,74,70,65,94,68,41,30.42,30.26,6,1,10,0.00
2013-7-18,93,82,73,74,70,68,90,68,46,30.29,30.09,6,0,13,0.00
2013-7-19,90,80,73,73,70,66,92,73,52,30.11,29.93,8,2,15,0.01
2013-7-20,79,74,68,71,69,66,95,85,70,29.99,29.89,7,0,13,0.51
2013-7-21,86,76,69,71,68,62,95,76,47,30.03,29.94,5,0,8,0.00
2013-7-22,76,72,67,70,68,66,97,87,77,29.99,29.80,3,0,6,1.86
2013-7-23,85,75,67,70,68,63,97,79,55,29.84,29.71,9,2,17,0.01
2013-7-24,75,68,60,66,57,52,88,69,48,30.07,29.83,7,2,14,0.00
2013-7-25,80,66,54,55,51,47,93,63,35,30.16,30.07,6,1,12,0.00
2013-7-26,81,69,55,60,56,52,97,66,38,30.17,30.03,6,1,13,0.00
2013-7-27,73,68,64,66,62,58,95,84,62,30.03,29.86,6,0,14,0.28
2013-7-28,71,64,54,58,52,45,98,69,46,30.11,29.92,8,2,15,0.00
2013-7-29,76,66,58,56,52,50,83,62,46,30.28,30.11,7,1,16,0.00
2013-7-30,81,69,57,60,56,54,96,68,41,30.33,30.21,5,0,9,0.00
2013-7-31,74,70,66,65,62,59,93,79,70,30.22,30.00,5,0,10,0.12
2013-8-1,80,72,66,67,63,57,96,76,45,30.01,29.94,7,1,17,0.05
2013-8-2,79,70,58,63,59,53,97,70,45,30.08,29.97,6,1,12,0.00
2013-8-3,80,71,64,68,62,57,96,77,48,30.07,30.01,6,1,12,0.15
2013-8-4,75,67,60,61,56,50,95,71,44,30.20,30.07,8,2,15,0.00
2013-8-5,77,65,53,57,54,52,98,71,45,30.21,30.05,3,0,6,0.00
2013-8-6,83,73,65,61,57,54,75,59,40,30.07,29.99,6,1,12,0.00
2013-8-7,86,76,68,70,66,60,82,72,54,30.01,29.92,8,1,14,0.00
2013-8-8,85,74,70,72,70,68,96,87,60,30.03,29.95,6,0,14,1.10
2013-8-9,80,72,65,70,66,58,99,84,50,30.10,29.94,6,0,9,0.22
2013-8-10,83,74,65,65,63,60,95,72,46,30.19,30.09,7,0,10,0.00
2013-8-11,85,73,64,68,64,61,96,76,50,30.17,30.08,6,1,10,0.00
2013-8-12,85,74,62,70,63,61,97,73,47,30.15,29.92,7,1,11,0.06
2013-8-13,76,68,57,70,60,48,97,76,47,30.09,29.86,8,2,18,0.03
2013-8-14,69,59,52,52,49,46,91,71,47,30.24,30.09,5,1,10,0.00
2013-8-15,76,62,49,54,50,46,99,70,38,30.27,30.16,5,0,8,0.00
2013-8-16,78,66,54,55,52,49,91,65,39,30.24,30.19,3,0,10,0.00
2013-8-17,83,70,60,58,55,53,78,62,36,30.29,30.22,6,0,8,0.00
2013-8-18,79,68,59,64,60,56,93,78,57,30.28,30.19,6,1,10,0.00
2013-8-19,84,72,63,65,61,52,96,71,37,30.22,30.14,3,0,7,0.00
2013-8-20,86,72,60,66,60,57,97,70,40,30.28,30.17,3,0,8,0.00
2013-8-21,85,72,62,68,63,57,95,74,49,30.26,30.12,5,1,10,0.00
2013-8-22,85,73,65,70,65,62,94,76,54,30.20,30.06,10,2,17,0.01
2013-8-23,85,74,67,68,63,57,96,72,44,30.24,30.09,6,1,12,0.14
2013-8-24,85,71,57,59,56,53,89,61,36,30.38,30.23,3,0,8,0.00
2013-8-25,86,72,59,61,57,52,92,62,36,30.45,30.31,6,1,11,0.00
2013-8-26,87,75,60,67,62,58,93,67,44,30.35,30.11,8,1,14,0.00
2013-8-27,86,78,70,72,69,66,88,75,61,30.13,29.98,5,1,11,0.00
2013-8-28,86,79,73,75,70,68,88,75,60,30.02,29.85,8,2,15,0.08
2013-8-29,88,76,69,69,68,64,96,78,49,30.12,30.01,5,0,7,0.00
2013-8-30,88,76,65,68,66,63,97,74,47,30.07,29.87,7,1,13,0.00
2013-8-31,86,76,68,73,69,66,96,81,59,29.92,29.81,9,1,16,0.88
2013-9-1,85,76,67,71,68,65,97,78,55,29.87,29.77,6,1,13,0.01
2013-9-2,83,75,69,70,67,58,96,76,58,29.92,29.80,8,2,15,0.00
2013-9-3,69,62,55,58,53,50,94,74,61,30.12,29.92,8,2,14,0.00
2013-9-4,82,65,50,59,54,50,99,72,38,30.21,30.12,7,1,13,0.00
2013-9-5,80,67,57,62,55,44,97,70,36,30.30,30.17,7,1,13,0.00
2013-9-6,79,62,48,52,47,37,98,63,25,30.35,30.18,2,0,7,0.00
2013-9-7,85,68,50,64,55,49,97,69,44,30.18,29.99,7,1,12,0.00
2013-9-8,82,74,67,68,64,62,91,74,60,30.08,29.98,8,1,10,0.00
2013-9-9,89,75,62,68,64,59,92,70,45,30.12,30.01,7,1,15,0.00
2013-9-10,94,82,73,72,69,67,84,66,47,30.19,30.08,6,1,16,0.00
2013-9-11,89,78,73,72,70,65,91,78,50,30.22,30.06,6,1,17,0.19
2013-9-12,77,70,61,70,65,58,97,84,60,30.06,29.87,9,1,16,0.59
2013-9-13,63,59,52,58,50,47,91,72,58,30.07,29.93,9,5,15,0.00
2013-9-14,61,61,61,48,48,48,62,62,62,30.06,30.06,9,9,9,0.00
2013-9-15,75,65,53,57,50,40,97,58,41,30.22,30.06,9,4,12,0.00
2013-9-16,72,61,55,58,54,48,99,78,45,30.39,30.14,6,1,12,0.09
2013-9-17,74,60,47,52,49,47,99,71,40,30.43,30.28,3,0,9,0.00
2013-9-18,77,64,57,62,56,50,90,75,55,30.28,30.12,6,1,10,0.00
2013-9-19,72,67,65,67,64,62,96,90,79,30.17,30.04,3,0,9,0.00
2013-9-20,86,74,66,68,66,64,97,79,47,30.08,29.82,8,2,17,0.05
2013-9-21,72,66,58,67,59,47,99,81,50,29.89,29.70,9,1,22,1.27
2013-9-22,65,56,49,49,46,42,96,70,44,30.08,29.89,6,1,12,0.00
2013-9-23,65,54,44,49,44,42,99,74,46,30.20,30.08,5,0,11,0.00
2013-9-24,72,54,41,49,45,41,100,76,41,30.18,29.99,3,0,9,0.00
2013-9-25,74,58,47,54,50,47,98,77,44,30.00,29.91,2,0,8,0.00
2013-9-26,80,64,50,54,49,40,99,66,25,30.15,29.96,5,0,10,0.00
2013-9-27,79,63,48,54,50,47,98,67,36,30.25,30.15,5,0,9,0.00
2013-9-28,79,64,50,55,52,49,98,69,36,30.27,30.14,5,0,9,0.00
2013-9-29,75,64,55,59,56,53,94,78,52,30.14,30.03,8,1,14,0.00
2013-9-30,73,65,60,61,58,57,94,80,61,30.09,30.00,7,1,10,0.00
2013-10-1,78,66,55,62,58,54,98,78,47,30.15,30.06,9,1,14,0.00
2013-10-2,82,68,57,65,62,56,97,81,53,30.18,30.09,6,0,9,0.00
2013-10-3,78,70,66,69,65,63,94,85,61,30.15,30.07,7,1,14,0.14
2013-10-4,82,70,63,69,65,62,97,88,53,30.16,30.08,6,0,11,0.26
2013-10-5,82,71,64,69,66,63,96,85,58,30.13,29.99,8,1,20,0.03
2013-10-6,77,67,52,67,64,51,98,89,61,29.99,29.71,9,2,18,1.23
2013-10-7,61,52,47,53,46,41,100,79,51,30.22,29.81,12,2,17,0.35
2013-10-8,69,53,40,51,44,40,100,76,39,30.36,30.22,5,0,10,0.00
2013-10-9,72,56,45,47,45,41,99,71,34,30.36,30.25,5,0,7,0.00
2013-10-10,76,58,43,53,46,41,98,71,35,30.26,30.12,3,0,5,0.00
2013-10-11,79,61,46,52,47,43,98,64,30,30.17,30.07,6,0,10,0.00
2013-10-12,74,62,53,58,55,51,98,79,58,30.19,30.10,5,0,9,0.00
2013-10-13,68,62,56,60,57,54,95,85,73,30.37,30.19,7,1,13,0.00
2013-10-14,72,59,48,54,50,47,98,75,45,30.42,30.27,6,1,14,0.00
2013-10-15,69,58,47,62,55,46,99,88,75,30.29,29.98,5,1,10,0.00
2013-10-16,65,63,53,63,59,47,97,89,72,29.99,29.89,7,1,13,0.15
2013-10-17,53,48,41,49,45,41,100,89,76,29.98,29.83,7,1,13,0.10
2013-10-18,64,52,42,48,43,40,100,75,43,30.07,29.96,8,1,15,0.01
2013-10-19,49,46,41,47,43,39,99,91,80,30.00,29.81,6,1,13,0.14
2013-10-20,61,48,36,42,39,36,100,76,45,30.05,29.99,9,2,16,0.00
2013-10-21,66,54,42,48,40,37,88,62,35,30.05,29.88,8,2,18,0.00
2013-10-22,52,44,35,47,32,24,94,65,35,30.06,29.90,7,1,15,0.07
2013-10-23,45,39,33,40,36,32,100,89,61,30.02,29.77,10,1,21,0.44
2013-10-24,46,38,33,36,32,26,96,78,48,30.26,30.01,8,2,18,0.01
2013-10-25,49,38,28,34,29,26,100,73,45,30.45,30.26,8,1,16,0.00
2013-10-26,47,40,31,36,30,26,86,68,47,30.31,29.92,8,2,18,0.00
2013-10-27,56,42,30,41,33,29,100,75,40,30.15,30.05,6,0,11,0.00
2013-10-28,62,44,30,41,34,30,100,73,34,30.36,30.12,5,0,8,0.00
2013-10-29,59,48,35,44,38,35,100,74,41,30.44,30.28,3,0,7,0.00
2013-10-30,64,56,50,58,49,38,97,76,63,30.27,30.06,6,1,9,0.00
2013-10-31,65,61,58,60,58,55,98,88,71,30.06,29.30,13,4,23,0.60
2013-11-1,62,55,50,61,47,42,97,76,53,29.72,29.30,14,4,26,0.08
2013-11-2,52,48,43,44,41,37,96,77,60,30.08,29.70,9,2,16,0.03
2013-11-3,54,44,38,42,37,31,99,79,48,30.48,30.08,5,0,8,0.00
2013-11-4,54,45,36,38,32,28,78,62,44,30.53,30.39,7,1,13,0.00
2013-11-5,60,53,48,40,38,37,69,57,43,30.50,30.31,5,1,9,0.00
2013-11-6,66,56,47,58,45,35,99,69,46,30.31,29.96,8,2,20,0.32
2013-11-7,50,43,36,49,34,26,99,73,46,30.24,29.99,8,3,16,0.10
2013-11-8,46,38,32,34,31,27,96,79,51,30.40,30.19,9,2,19,0.00
2013-11-9,58,47,33,37,32,28,92,59,37,30.30,30.00,10,4,24,0.00
2013-11-10,49,42,30,39,31,27,92,66,49,30.38,30.06,10,4,21,0.00
2013-11-11,50,40,28,39,32,28,100,77,43,30.36,30.08,8,2,20,0.04
2013-11-12,33,29,25,33,25,21,100,85,71,30.65,30.24,8,3,20,0.05
2013-11-13,38,30,21,23,20,14,96,70,42,30.67,30.43,9,2,15,0.01
2013-11-14,51,38,28,24,22,19,78,54,28,30.43,30.18,8,2,16,0.00
2013-11-15,52,45,37,40,26,20,77,49,37,30.22,30.13,8,2,14,0.00
2013-11-16,60,52,46,52,46,40,87,81,76,30.20,29.94,8,3,18,0.00
2013-11-17,61,58,51,59,53,38,98,86,53,29.95,29.45,15,7,29,0.51
2013-11-18,51,44,36,40,34,27,83,68,47,30.18,29.72,17,7,29,0.00
2013-11-19,43,36,30,28,26,24,85,68,48,30.43,30.18,7,2,14,0.00
2013-11-20,48,38,29,29,26,23,84,64,46,30.43,30.30,7,2,13,0.00
2013-11-21,56,47,38,44,36,26,90,66,50,30.41,30.25,7,1,10,0.10
2013-11-22,52,46,36,52,44,28,100,93,75,30.41,30.18,13,2,21,0.27
2013-11-23,36,29,20,30,23,8,96,78,55,30.56,30.32,12,4,19,0.00
2013-11-24,26,20,15,14,10,5,83,67,48,30.71,30.56,8,2,16,0.00
2013-11-25,36,27,17,31,17,11,99,68,42,30.59,30.23,10,2,18,0.00
2013-11-26,34,32,31,34,32,30,100,99,94,30.23,29.86,3,0,8,0.00
2013-11-27,31,27,24,31,21,12,99,80,53,30.25,29.84,13,4,22,0.00
2013-11-28,31,26,22,22,20,17,90,77,63,30.47,30.25,9,2,16,0.00
2013-11-29,38,30,19,24,20,17,95,69,47,30.70,30.47,5,0,8,0.08
2013-11-30,29,29,28,23,22,21,79,77,74,30.63,30.49,3,0,6,0.00
2013-12-2,47,42,29,37,36,23,96,80,66,30.49,29.81,5,1,8,0.03
2013-12-3,53,44,36,45,41,36,99,88,73,29.88,29.81,6,1,10,0.03
2013-12-4,61,54,47,52,48,43,87,79,70,29.92,29.75,7,2,13,0.00
2013-12-5,63,50,33,60,46,32,99,85,69,30.17,29.76,10,3,16,0.14
2013-12-6,33,29,26,32,29,26,100,98,93,30.40,30.12,8,2,14,0.01
2013-12-7,27,23,17,26,18,14,99,80,62,30.67,30.40,7,2,13,0.00
2013-12-8,31,25,18,31,22,14,100,87,77,30.63,30.00,6,2,12,0.00
2013-12-9,33,30,25,33,27,20,100,89,78,30.23,29.96,12,4,19,0.01
2013-12-10,26,22,19,22,17,12,100,81,65,30.35,30.11,12,4,20,0.00
2013-12-11,32,22,14,22,16,11,91,80,66,30.52,30.27,9,3,14,0.00
2013-12-12,20,16,10,12,6,-1,89,67,44,30.57,30.33,9,2,16,0.00
2013-12-13,33,25,14,28,17,9,87,70,58,30.33,30.21,6,1,12,0.00
2013-12-14,37,34,31,37,34,28,100,100,87,30.24,29.66,8,1,14,0.18
2013-12-15,32,25,22,32,22,14,100,88,69,30.10,29.72,13,6,27,0.00
2013-12-16,29,24,19,28,21,16,100,88,75,30.18,29.99,8,1,16,0.00
2013-12-17,32,28,26,32,26,23,100,91,83,30.13,29.94,10,3,22,0.00
2013-12-18,31,27,24,25,21,18,94,80,62,30.26,30.06,10,4,15,0.00
2013-12-19,49,40,29,37,28,19,75,64,53,30.10,29.97,5,1,13,0.01
2013-12-20,55,51,46,53,43,31,97,76,54,29.97,29.83,9,3,21,0.02
2013-12-21,66,58,55,61,57,53,100,96,77,29.84,29.43,14,4,25,1.19
2013-12-22,66,55,41,60,50,39,99,85,67,30.02,29.43,16,5,30,0.41
2013-12-23,42,33,26,40,27,19,93,78,68,30.39,30.02,10,4,19,0.01
2013-12-24,27,17,11,22,13,6,100,83,74,30.62,30.35,12,4,18,0.00
2013-12-25,32,23,13,25,16,11,90,73,50,30.58,30.19,9,2,16,0.00
2013-12-26,37,32,29,27,22,15,86,68,46,30.38,30.16,14,5,22,0.00
2013-12-27,45,37,31,30,27,22,79,68,55,30.44,30.31,7,2,12,0.00
2013-12-28,51,40,32,34,30,26,84,66,50,30.31,30.03,7,2,13,0.00
2013-12-29,42,39,32,42,35,26,100,86,52,30.03,29.73,12,2,20,0.29
2013-12-30,32,27,24,29,21,18,93,80,73,30.25,29.96,12,3,18,0.00
2013-12-31,28,24,20,21,17,14,91,76,67,30.37,30.12,13,5,23,0.00
2014-1-1,39,30,21,29,25,19,93,79,63,30.33,30.06,6,1,10,0.00
2014-1-2,29,22,10,27,20,8,100,92,85,30.17,29.75,10,3,23,0.00